TimeCST,TemperatureF,Dew PointF,Humidity,Sea Level PressureIn,VisibilityMPH,Wind Direction,Wind SpeedMPH,Gust SpeedMPH,PrecipitationIn,Events,Conditions,WindDirDegrees,DateUTC
12:16 AM,1.4,-7.6,66,29.88,10.0,NNW,12.7,24.2,N/A,,Clear,330,2013-01-31 06:16:00
12:36 AM,1.4,-7.6,66,29.88,10.0,NW,12.7,-,N/A,,Clear,320,2013-01-31 06:36:00
12:56 AM,1.4,-7.6,66,29.88,10.0,NNW,13.8,-,N/A,,Clear,330,2013-01-31 06:56:00
1:15 AM,-0.4,-7.6,72,29.90,10.0,NW,9.2,-,N/A,,Clear,320,2013-01-31 07:15:00
1:36 AM,-0.4,-9.4,66,29.90,10.0,NNW,12.7,18.4,N/A,,Clear,330,2013-01-31 07:36:00
1:56 AM,-0.4,-9.4,66,29.90,10.0,NNW,10.4,-,N/A,,Clear,330,2013-01-31 07:56:00
2:16 AM,-0.4,-9.4,66,29.90,10.0,NW,15.0,20.7,N/A,,Clear,320,2013-01-31 08:16:00
2:36 AM,-0.4,-9.4,66,29.92,10.0,NNW,13.8,18.4,N/A,,Clear,330,2013-01-31 08:36:00
2:56 AM,-2.2,-9.4,71,29.92,10.0,NW,13.8,20.7,N/A,,Clear,320,2013-01-31 08:56:00
3:16 AM,-2.2,-9.4,71,29.93,10.0,NW,19.6,24.2,N/A,,Clear,310,2013-01-31 09:16:00
3:36 AM,-4.0,-11.2,71,29.94,10.0,NNW,16.1,25.3,N/A,,Clear,340,2013-01-31 09:36:00
3:56 AM,-4.0,-9.4,78,29.95,10.0,NW,12.7,17.3,N/A,,Scattered Clouds,320,2013-01-31 09:56:00
4:16 AM,-4.0,-11.2,71,29.96,10.0,NW,15.0,-,N/A,,Mostly Cloudy,310,2013-01-31 10:16:00
4:36 AM,-4.0,-9.4,78,29.96,10.0,NW,17.3,23.0,N/A,,Overcast,320,2013-01-31 10:36:00
4:56 AM,-4.0,-9.4,78,29.97,10.0,NW,13.8,19.6,N/A,,Overcast,310,2013-01-31 10:56:00
5:16 AM,-2.2,-9.4,71,29.97,10.0,NW,12.7,16.1,N/A,,Overcast,310,2013-01-31 11:16:00
5:36 AM,-4.0,-9.4,78,29.97,10.0,NW,13.8,19.6,N/A,,Overcast,320,2013-01-31 11:36:00
5:56 AM,-4.0,-9.4,78,29.98,10.0,NNW,15.0,24.2,N/A,,Overcast,330,2013-01-31 11:56:00
6:16 AM,-4.0,-9.4,78,30.00,10.0,NNW,13.8,-,N/A,,Overcast,330,2013-01-31 12:16:00
6:36 AM,-4.0,-11.2,71,30.01,7.0,NNW,18.4,24.2,N/A,,Overcast,330,2013-01-31 12:36:00
6:56 AM,-4.0,-11.2,71,30.03,7.0,NW,18.4,24.2,N/A,,Overcast,320,2013-01-31 12:56:00
7:16 AM,-4.0,-13.0,65,30.04,7.0,NNW,16.1,24.2,N/A,,Overcast,330,2013-01-31 13:16:00
7:36 AM,-4.0,-13.0,65,30.05,4.0,NNW,20.7,26.5,N/A,,Haze,330,2013-01-31 13:36:00
7:56 AM,-5.8,-13.0,71,30.06,3.0,NW,17.3,24.2,N/A,,Haze,320,2013-01-31 13:56:00
8:16 AM,-5.8,-13.0,71,30.07,2.5,NNW,18.4,24.2,N/A,Snow,Light Snow,330,2013-01-31 14:16:00
8:36 AM,-5.8,-13.0,71,30.08,3.0,NW,16.1,21.9,N/A,,Haze,320,2013-01-31 14:36:00
8:56 AM,-4.0,-13.0,65,30.09,5.0,NNW,16.1,25.3,N/A,,Haze,330,2013-01-31 14:56:00
9:36 AM,-4.0,-13.0,65,30.12,10.0,NNW,18.4,24.2,N/A,,Clear,330,2013-01-31 15:36:00
9:56 AM,-4.0,-14.8,60,30.14,10.0,NW,20.7,28.8,N/A,,Scattered Clouds,320,2013-01-31 15:56:00
10:16 AM,-4.0,-13.0,65,30.14,7.0,NW,20.7,28.8,N/A,,Mostly Cloudy,320,2013-01-31 16:16:00
10:36 AM,-4.0,-13.0,65,30.15,7.0,NNW,21.9,34.5,N/A,,Overcast,330,2013-01-31 16:36:00
10:56 AM,-4.0,-13.0,65,30.17,7.0,NW,21.9,29.9,N/A,,Scattered Clouds,320,2013-01-31 16:56:00
11:16 AM,-2.2,-13.0,60,30.17,10.0,NNW,23.0,29.9,N/A,,Clear,330,2013-01-31 17:16:00
11:36 AM,-0.4,-13.0,55,30.18,10.0,NNW,20.7,33.4,N/A,,Clear,330,2013-01-31 17:36:00
11:56 AM,-0.4,-13.0,55,30.18,10.0,NNW,25.3,32.2,N/A,,Clear,330,2013-01-31 17:56:00
12:16 PM,-2.2,-13.0,60,30.19,10.0,NW,27.6,32.2,N/A,,Clear,310,2013-01-31 18:16:00
12:36 PM,-2.2,-13.0,60,30.19,7.0,NW,24.2,34.5,N/A,,Clear,320,2013-01-31 18:36:00
12:56 PM,-0.4,-13.0,55,30.20,10.0,NNW,24.2,31.1,N/A,,Clear,330,2013-01-31 18:56:00
1:16 PM,-0.4,-11.2,60,30.21,10.0,NW,23.0,32.2,N/A,,Clear,310,2013-01-31 19:16:00
1:35 PM,-0.4,-11.2,60,30.21,10.0,NW,21.9,28.8,N/A,,Clear,320,2013-01-31 19:35:00
1:56 PM,-0.4,-11.2,60,30.21,10.0,NW,23.0,31.1,N/A,,Clear,310,2013-01-31 19:56:00
2:16 PM,-0.4,-9.4,66,30.22,7.0,NW,24.2,31.1,N/A,,Scattered Clouds,310,2013-01-31 20:16:00
2:36 PM,-0.4,-9.4,66,30.23,10.0,WNW,23.0,28.8,N/A,,Scattered Clouds,300,2013-01-31 20:36:00
2:56 PM,-0.4,-11.2,60,30.23,7.0,NW,21.9,28.8,N/A,,Clear,310,2013-01-31 20:56:00
3:16 PM,-0.4,-11.2,60,30.24,10.0,NW,20.7,27.6,N/A,,Clear,310,2013-01-31 21:16:00
3:36 PM,-0.4,-11.2,60,30.24,10.0,NW,19.6,25.3,N/A,,Clear,320,2013-01-31 21:36:00
3:56 PM,-0.4,-11.2,60,30.24,10.0,NW,20.7,26.5,N/A,,Clear,310,2013-01-31 21:56:00
4:16 PM,-0.4,-11.2,60,30.25,10.0,NW,17.3,26.5,N/A,,Clear,320,2013-01-31 22:16:00
4:36 PM,-0.4,-13.0,55,30.26,10.0,NW,19.6,27.6,N/A,,Clear,320,2013-01-31 22:36:00
4:56 PM,-2.2,-13.0,60,30.26,10.0,NW,18.4,27.6,N/A,,Clear,320,2013-01-31 22:56:00
5:16 PM,-2.2,-13.0,60,30.27,10.0,NW,16.1,24.2,N/A,,Clear,310,2013-01-31 23:16:00
5:36 PM,-4.0,-13.0,65,30.27,10.0,WNW,15.0,19.6,N/A,,Clear,300,2013-01-31 23:36:00
5:56 PM,-4.0,-13.0,65,30.28,10.0,WNW,20.7,25.3,N/A,,Clear,300,2013-01-31 23:56:00
6:16 PM,-4.0,-14.8,60,30.29,10.0,WNW,16.1,23.0,N/A,,Clear,300,2013-02-01 00:16:00
6:36 PM,-5.8,-14.8,65,30.29,10.0,NW,16.1,23.0,N/A,,Clear,320,2013-02-01 00:36:00
6:56 PM,-5.8,-14.8,65,30.30,10.0,NW,15.0,23.0,N/A,,Clear,310,2013-02-01 00:56:00
7:16 PM,-5.8,-14.8,65,30.30,10.0,NW,18.4,23.0,N/A,,Clear,310,2013-02-01 01:16:00
7:36 PM,-5.8,-14.8,65,30.31,10.0,NW,12.7,18.4,N/A,,Clear,310,2013-02-01 01:36:00
7:56 PM,-5.8,-14.8,65,30.31,10.0,NW,12.7,20.7,N/A,,Clear,310,2013-02-01 01:56:00
8:16 PM,-5.8,-14.8,65,30.32,10.0,WNW,15.0,20.7,N/A,,Clear,300,2013-02-01 02:16:00
8:36 PM,-5.8,-14.8,65,30.31,10.0,NW,13.8,21.9,N/A,,Clear,310,2013-02-01 02:36:00
8:56 PM,-5.8,-14.8,65,30.32,10.0,NW,15.0,-,N/A,,Scattered Clouds,310,2013-02-01 02:56:00
9:16 PM,-5.8,-14.8,65,30.32,10.0,NW,11.5,-,N/A,,Clear,310,2013-02-01 03:16:00
9:36 PM,-5.8,-14.8,65,30.31,10.0,NW,11.5,-,N/A,,Clear,310,2013-02-01 03:36:00
9:56 PM,-5.8,-14.8,65,30.32,10.0,NW,10.4,-,N/A,,Clear,310,2013-02-01 03:56:00
10:16 PM,-5.8,-13.0,71,30.32,10.0,NW,9.2,-,N/A,,Clear,310,2013-02-01 04:16:00
10:36 PM,-5.8,-13.0,71,30.32,10.0,NW,9.2,-,N/A,,Clear,310,2013-02-01 04:36:00
10:56 PM,-5.8,-13.0,71,30.32,10.0,WNW,9.2,-,N/A,,Clear,300,2013-02-01 04:56:00
11:16 PM,-5.8,-13.0,71,30.31,10.0,WNW,9.2,-,N/A,,Clear,300,2013-02-01 05:16:00
11:36 PM,-5.8,-13.0,71,30.31,10.0,NW,10.4,-,N/A,,Clear,320,2013-02-01 05:36:00
11:56 PM,-5.8,-14.8,65,30.31,10.0,NW,10.4,-,N/A,,Clear,310,2013-02-01 05:56:00